Home   Weather   Chelyabinsk   Past weeks

Flag for Russia Past Weather in Chelyabinsk, Russia — Yesterday and Last 2 Weeks

Now
37 °F

Passing clouds.


Feels Like: 29 °F
Forecast: 35 / 44 °F
Wind: 13 mph from West

Location: Chelyabinsk-Balandino

Current Time: Oct 20, 2017 at 4:54:58 am

Latest Report: Oct 20, 2017 at 4:30 am


Visibility: N/A

Pressure: 29.53 "Hg

Humidity: 75%

Dew Point: 30 °F

Location of ChelyabinskLocation

Past Weather in Chelyabinsk — Graph

°F

Chelyabinsk Temperature Yesterday

Maximum temperature yesterday: 50 °F (at 3:30 pm)
Minimum temperature yesterday: 30 °F (at 4:30 am)
Average temperature yesterday: 41 °F

High & Low Weather Summary for the Past Weeks

 TemperatureHumidityPressure
High59 °F (Oct 10, 1:00 pm)100% (Oct 6, 1:30 am)30.45 "Hg (Oct 6, 1:30 am)
Low21 °F (Oct 5, 6:00 am)23% (Oct 10, 3:30 pm)29.47 "Hg (Oct 19, 6:30 pm)
Average42 °F67%30.08 "Hg
* Reported Oct 5 3:00 am — Oct 20 3:30 am, Chelyabinsk. Weather by CustomWeather, © 2017

Note: Actual official high and low records may vary slightly from our data, if they occured in-between our weather recording intervals... More about our weather records

Advertising

Chelyabinsk Weather History for the Previous 24 Hours

Scroll right to see more
 ConditionsComfort  
Time TempWeatherWind HumidityBarometerVisibility
3:30 am
Fri, Oct 20
37 °FPassing clouds.10 mph75%29.53 "HgN/A
3:00 am37 °FPassing clouds.13 mph81%29.53 "HgN/A
2:30 am37 °FPassing clouds.10 mph81%29.53 "HgN/A
2:00 am37 °FPassing clouds.10 mph81%29.53 "HgN/A
1:30 am37 °FPassing clouds.15 mph81%29.53 "HgN/A
1:00 am39 °FPassing clouds.20 mph75%29.53 "HgN/A
12:30 am39 °FSprinkles. Passing clouds.20 mph81%29.53 "HgN/A
12:00 am41 °FSprinkles. Passing clouds.15 mph87%29.50 "Hg3 mi
11:30 pm
Thu, Oct 19
41 °FRain showers. Passing clouds.13 mph87%29.50 "Hg3 mi
11:00 pm39 °FPassing clouds.15 mph87%29.50 "HgN/A
10:30 pm41 °FSprinkles. Passing clouds.17 mph87%29.50 "HgN/A
10:00 pm45 °FPassing clouds.13 mph76%29.50 "HgN/A
9:30 pm43 °FPassing clouds.15 mph81%29.50 "HgN/A
9:00 pm43 °FSprinkles. Passing clouds.15 mph87%29.47 "Hg6 mi
8:30 pm41 °FRain showers. Passing clouds.17 mph93%29.50 "Hg3 mi
8:00 pm50 °FPassing clouds.13 mph67%29.47 "HgN/A
7:30 pm43 °FPassing clouds.6 mph81%29.47 "HgN/A
7:00 pm46 °FPassing clouds.6 mph76%29.47 "HgN/A
6:30 pm48 °FScattered clouds.8 mph71%29.47 "HgN/A
6:00 pm48 °FScattered clouds.8 mph66%29.50 "HgN/A
5:30 pm48 °FScattered clouds.10 mph66%29.50 "HgN/A
5:00 pm48 °FScattered clouds.10 mph66%29.50 "HgN/A
4:30 pm50 °FPassing clouds.10 mph62%29.50 "HgN/A
4:00 pm50 °FScattered clouds.10 mph58%29.50 "HgN/A
3:30 pm50 °FScattered clouds.13 mph58%29.50 "HgN/A
3:00 pm48 °FScattered clouds.10 mph62%29.53 "HgN/A
2:30 pm46 °FScattered clouds.10 mph66%29.53 "HgN/A
2:00 pm48 °FScattered clouds.10 mph58%29.53 "HgN/A
1:30 pm46 °FSunny.8 mph62%29.53 "Hg10 mi
1:00 pm45 °FSunny.8 mph66%29.53 "Hg10 mi
12:30 pm43 °FSunny.8 mph66%29.56 "Hg10 mi
12:00 pm43 °FSunny.8 mph66%29.56 "Hg10 mi
11:30 am43 °FSunny.10 mph66%29.56 "Hg10 mi
11:00 am43 °FSunny.10 mph61%29.56 "Hg10 mi
10:30 am41 °FSunny.10 mph70%29.56 "Hg10 mi
10:00 am41 °FSunny.8 mph70%29.56 "Hg10 mi
9:30 am39 °FSunny.6 mph75%29.56 "Hg10 mi
9:00 am39 °FSunny.6 mph75%29.59 "Hg10 mi
8:30 am37 °FSunny.6 mph81%29.59 "Hg10 mi
8:00 am37 °FFog.6 mph81%29.59 "Hg3 mi
7:30 am37 °FFog.6 mph81%29.59 "Hg3 mi
7:00 am36 °FClear.6 mph87%29.59 "Hg4 mi
6:30 am36 °FFog.6 mph87%29.59 "Hg3 mi
6:00 am34 °FClear.3 mph87%29.59 "Hg10 mi
5:30 am34 °FClear.3 mph87%29.59 "Hg10 mi
5:00 am32 °FClear.3 mph87%29.59 "Hg10 mi
4:30 am30 °FClear.1 mph93%29.59 "Hg10 mi
4:00 am32 °FClear.3 mph87%29.62 "Hg10 mi
Weather by CustomWeather, © 2017

See weather overview